星链-34824 (STARLINK-34824)

导读

STARLINK-34824是美国SpaceX星链星座的一颗卫星,于2025年7月30日发射。星链项目旨在构建全球卫星互联网星座,为全球不同地区用户提供高速低延迟的宽带网络服务,尤其是弥补地面网络覆盖不足区域的接入缺口,该卫星入轨后将参与星座组网,拓展星链的全球服务能力。

基本信息
目录编号:
65042
目录名称:
STARLINK-34824
国际标识:
2025-161AD
轨道中心:
EARTH
卫星名称:
星链-34824
卫星全名:
星链-34824 (STARLINK-34824)
卫星状态:
在轨 (已飞行409 天)
发射日期:
2025-07-30 UTC
国别 :
美国 (US)
星等 :
--
该卫星已列入 空间交会检测服务 Space Conjunction Data Service (SCDS) ,当前飞行风险评估等级: 无高风险
轨道信息
数据来源 国际轨道数据 AOE轨道数据
星历时间 2026-09-12T09:32:01+0800
10小时前
查看轨道信息
2026-09-11T00:00:00+0800
1天前
查看轨道信息
半长轴 6840.822km 6840.806km
偏心率 0.0001032 0.0001417
轨道倾角 53.156° 53.158°
近地点辐角 120.880° 87.218°
升交点赤经 145.032° 151.567°
平近点角 239.230° 110.513°
近地点 461.979km 461.699km
远地点 463.391km 463.639km
周期 93.847分钟 93.847分钟
每日圈数 15.344064 15.344116
详细信息
固有亮度:
5
最大亮度:
2.5
卫星平台:
Starlink V1.0
覆盖范围:
全球
运营商:
太空探索技术公司
运营商所在国:
美国
制造商(研发单位):
太空探索技术公司
制造商所在国:
美国
使用方式:
暂无
卫星简介
Starlink 计划是 SpaceX 推出的全球卫星互联网项目,通过发射低轨道卫星,为全球尤其是偏远地区提供高速、低延迟的互联网服务。自 2019 年起,Starlink 已部署数千颗卫星,旨在缩小全球数字鸿沟,推动互联网普及。该项目还为军事、航空等行业提供通信支持,带来广泛经济效益。
2D轨道图
3D轨道图
轨道高度分析图
轨道倾角分析图
轨道综合分析图
查看轨道综合分析图
与全量物体交会距离演化趋势
与全量物体交会风险概率演化趋势